OPS 4682 DEB, 18784

Orbit data source: Space-Track

OPS 4682 DEB, 18784 is space debris in LEO originally from a launch on Sat, 03 Apr 1965 UTC launched from the Air Force Western Test Range (AFWTR). Debris objects in space refer to the collection of defunct objects orbiting the Earth. Examples of debris include non-operational satellites, rocket bodies, and fragments generated from explosions, collisions, or faulty payload assembly.

Loading next visibility...
Identifier
18784, 1965-027AL
Orbit
LEO
Country
Flag of USUS
Related business
Manufacturer
Unknown
Mission
Spacecraft
Bus & Motor
Unknown
Mass
Unknown
Launch date (UTC)
1965-04-03 (61 years ago)
Launch vehicle
Unknown
Launch site
Air Force Western Test Range (AFWTR)
Object type
Payload
Rocket body
Debris
Shape & HBR
Unknown shape, 0.1 m
Radar Cross Section
Medium (>0.1 m² and <1 m²)

Expand to show TLE details & history
Last TLE update: 2 days ago

TLE from 2 days ago
0 OPS 4682 DEB
1 18784U 65027AL  26149.06528800  .00000465  00000-0  15778-2 0  9994
2 18784  90.2516   3.9647 0040774 163.6140 349.9710 12.97131389799906
Epoch: 2026-05-29T01:34Z
TLE epoch observation values (Epoch: 2026-05-29T01:34:00.883Z)
Latitude
26.52866°
Longitude
-86.01503°
Altitude
1,245.85 km
Speed
7.249 km/s
True Right ascension
12h 16m 21s
True Declination
26° 24' 01"
Sunlit
Object was in daylight at epoch
Visualization orbit readout
Latitude
Unknown
Longitude
Unknown
Altitude
Unknown
Speed
Unknown
Apparent Right ascension
Unknown
Apparent Declination
Unknown
Sunlit
N/A
Visualization observer readout
Local Sidereal Time
02:47:29
Azimuth
Unknown
Elevation
Unknown
Doppler factor
Unknown
Orbital elements
Apogee altitude
1,301.664 km
Perigee altitude
1,239.291 km
Semi-major axis
7,648.615 km
Eccentricity
0.00408
Inclination
90.2516°
RAAN
3.9647°
Arg. of periapsis
163.614°
True anomaly
349.88922°
Mean anomaly
349.971°
Eccentric anomaly
349.93015°
Mean motion
3.24466 °/min
Orbital period
110.95 mins
BSTAR
0.0015778
Loading maneuver chart data...
Computing Atmospheric mass density...
Loading historical data...
Loading historical data...
Loading historical data...
Loading historical data...
Loading historical data...
Loading historical data...
Loading historical data...

Documentation

Showing up to 5 results
|